Tracking 20241 objects as of 26-Jan-2020
HD Live streaming from Space Station
objects crossing your sky now

TITAN 3C TRANSTAGE DEB

Track TITAN 3C TRANSTAGE DEB now!


NORAD ID: 34172
Int'l Code: 1965-108DF
Perigee: 768.3 km
Apogee: 30,533.9 km
Inclination: 26.4 °
Period: 542.1 minutes
Semi major axis: 22022 km
RCS: 0.0224 m2 (small)
Launch date: December 21, 1965
Source: United States (US)
Launch site: AIR FORCE EASTERN TEST RANGE (AFETR)

Note: This is SATELLITE DEBRIS
aabbcc
Your satellite tracking list
Your tracking list is empty




NASA's NSSDC Master Catalog

Two Line Element Set (TLE):
1 34172U 65108DF  20025.84123801 -.00000016  00000-0  11176-2 0  9999
2 34172  26.3773 251.1808 6758104  60.3032   4.5513  2.65653045132636
Source of the keplerian elements: AFSPC